contact:dominique.lefevre@mio.osupytheas.fr, maurice.libes@osupytheas.fr, didier.mallarino@osupytheas.fr
Project:EMSO http://www.emso-fr.org/EMSO-France
Depth: 2436.0 m
Title:EMSO Ligure Ouest : Data MII capteur MICROCAT
DateTime_Computer,Latitude,Longitude,Temperature,Conductivity,Pressure,DateTime_Instrument
DateTime_Computer,Latitude,Longitude,degC,S m-1,dbar,DateTime_Instrument
2022-06-30T09:58:09Z,42.805,6.029,13.3006,4.60041,2470.544,2022-6-30T11:59:53Z
2022-06-30T10:01:12Z,42.805,6.029,13.3007,4.60045,2470.53,2022-6-30T12:02:57Z
2022-06-30T10:04:15Z,42.805,6.029,13.3007,4.60042,2470.507,2022-6-30T12:06:00Z
2022-06-30T10:07:18Z,42.805,6.029,13.3007,4.60041,2470.507,2022-6-30T12:09:03Z
2022-06-30T10:10:21Z,42.805,6.029,13.3006,4.60040,2470.507,2022-6-30T12:12:06Z
2022-06-30T10:13:24Z,42.805,6.029,13.3005,4.60042,2470.493,2022-6-30T12:15:09Z
2022-06-30T10:16:27Z,42.805,6.029,13.3011,4.60043,2470.507,2022-6-30T12:18:12Z
2022-06-30T10:19:30Z,42.805,6.029,13.3007,4.60041,2470.483,2022-6-30T12:21:15Z
2022-06-30T10:22:34Z,42.805,6.029,13.3006,4.60042,2470.46,2022-6-30T12:24:18Z
2022-06-30T10:25:37Z,42.805,6.029,13.3009,4.60044,2470.483,2022-6-30T12:27:22Z
2022-06-30T10:28:40Z,42.805,6.029,13.3010,4.60042,2470.497,2022-6-30T12:30:25Z
2022-06-30T10:31:43Z,42.805,6.029,13.3009,4.60040,2470.46,2022-6-30T12:33:28Z
2022-06-30T10:34:46Z,42.805,6.029,13.3006,4.60041,2470.46,2022-6-30T12:36:31Z
2022-06-30T10:37:49Z,42.805,6.029,13.3008,4.60054,2470.483,2022-6-30T12:39:34Z
2022-06-30T10:40:52Z,42.805,6.029,13.3010,4.60044,2470.497,2022-6-30T12:42:37Z
2022-06-30T10:43:56Z,42.805,6.029,13.3006,4.60042,2470.46,2022-6-30T12:45:40Z
2022-06-30T10:46:59Z,42.805,6.029,13.3010,4.60041,2470.483,2022-6-30T12:48:43Z
2022-06-30T10:50:02Z,42.805,6.029,13.3008,4.60042,2470.483,2022-6-30T12:51:47Z
2022-06-30T10:53:05Z,42.805,6.029,13.3009,4.60041,2470.483,2022-6-30T12:54:50Z
2022-06-30T10:56:08Z,42.805,6.029,13.3009,4.60042,2470.497,2022-6-30T12:57:53Z
2022-06-30T10:59:11Z,42.805,6.029,13.3009,4.60042,2470.437,2022-6-30T13:00:56Z
2022-06-30T11:02:14Z,42.805,6.029,13.3008,4.60044,2470.483,2022-6-30T13:03:59Z
2022-06-30T11:05:17Z,42.805,6.029,13.3010,4.60043,2470.437,2022-6-30T13:07:02Z
2022-06-30T11:08:21Z,42.805,6.029,13.3007,4.60041,2470.437,2022-6-30T13:10:05Z
2022-06-30T11:11:24Z,42.805,6.029,13.3006,4.60042,2470.46,2022-6-30T13:13:08Z
2022-06-30T11:14:27Z,42.805,6.029,13.3004,4.60043,2470.437,2022-6-30T13:16:12Z
2022-06-30T11:17:30Z,42.805,6.029,13.3007,4.60042,2470.474,2022-6-30T13:19:15Z
2022-06-30T11:20:33Z,42.805,6.029,13.3009,4.60044,2470.483,2022-6-30T13:22:18Z
2022-06-30T11:23:36Z,42.805,6.029,13.3008,4.60046,2470.497,2022-6-30T13:25:21Z
2022-06-30T11:26:39Z,42.805,6.029,13.3007,4.60057,2470.437,2022-6-30T13:28:24Z
2022-06-30T11:29:42Z,42.805,6.029,13.3009,4.60051,2470.46,2022-6-30T13:31:27Z
2022-06-30T11:32:46Z,42.805,6.029,13.3009,4.60043,2470.474,2022-6-30T13:34:30Z
2022-06-30T11:35:49Z,42.805,6.029,13.3009,4.60043,2470.46,2022-6-30T13:37:33Z
2022-06-30T11:38:52Z,42.805,6.029,13.3008,4.60043,2470.437,2022-6-30T13:40:37Z
2022-06-30T11:41:55Z,42.805,6.029,13.3011,4.60042,2470.46,2022-6-30T13:43:40Z
2022-06-30T11:44:58Z,42.805,6.029,13.3010,4.60043,2470.46,2022-6-30T13:46:43Z
2022-06-30T11:48:01Z,42.805,6.029,13.3010,4.60048,2470.427,2022-6-30T13:49:46Z
2022-06-30T11:51:04Z,42.805,6.029,13.3006,4.60044,2470.437,2022-6-30T13:52:49Z
2022-06-30T11:54:07Z,42.805,6.029,13.3011,4.60044,2470.427,2022-6-30T13:55:52Z
2022-06-30T11:57:11Z,42.805,6.029,13.3006,4.60044,2470.437,2022-6-30T13:58:55Z
2022-06-30T12:00:14Z,42.805,6.029,13.3006,4.60043,2470.427,2022-6-30T14:01:59Z
2022-06-30T12:03:17Z,42.805,6.029,13.3008,4.60044,2470.437,2022-6-30T14:05:02Z
2022-06-30T12:06:20Z,42.805,6.029,13.3011,4.60046,2470.427,2022-6-30T14:08:05Z
2022-06-30T12:09:23Z,42.805,6.029,13.3009,4.60049,2470.427,2022-6-30T14:11:08Z
2022-06-30T12:12:26Z,42.805,6.029,13.3008,4.60046,2470.437,2022-6-30T14:14:11Z
2022-06-30T12:15:29Z,42.805,6.029,13.3009,4.60042,2470.413,2022-6-30T14:17:14Z
2022-06-30T12:18:32Z,42.805,6.029,13.3010,4.60043,2470.437,2022-6-30T14:20:17Z
2022-06-30T12:21:36Z,42.805,6.029,13.3009,4.60050,2470.437,2022-6-30T14:23:20Z
2022-06-30T12:24:39Z,42.805,6.029,13.3005,4.60042,2470.413,2022-6-30T14:26:24Z
2022-06-30T12:27:42Z,42.805,6.029,13.3009,4.60043,2470.437,2022-6-30T14:29:27Z
2022-06-30T12:30:45Z,42.805,6.029,13.3006,4.60049,2470.413,2022-6-30T14:32:30Z
2022-06-30T12:33:48Z,42.805,6.029,13.3007,4.60049,2470.427,2022-6-30T14:35:33Z
2022-06-30T12:36:51Z,42.805,6.029,13.3007,4.60044,2470.45,2022-6-30T14:38:36Z
2022-06-30T12:39:54Z,42.805,6.029,13.3009,4.60047,2470.427,2022-6-30T14:41:39Z
2022-06-30T12:42:57Z,42.805,6.029,13.3009,4.60045,2470.413,2022-6-30T14:44:42Z
2022-06-30T12:46:01Z,42.805,6.029,13.3009,4.60050,2470.413,2022-6-30T14:47:45Z
2022-06-30T12:49:04Z,42.805,6.029,13.3009,4.60045,2470.427,2022-6-30T14:50:49Z
2022-06-30T12:52:07Z,42.805,6.029,13.3010,4.60047,2470.39,2022-6-30T14:53:52Z
2022-06-30T12:55:10Z,42.805,6.029,13.3009,4.60046,2470.39,2022-6-30T14:56:55Z
2022-06-30T12:58:13Z,42.805,6.029,13.3006,4.60044,2470.39,2022-6-30T14:59:58Z
2022-06-30T13:01:16Z,42.805,6.029,13.3009,4.60044,2470.39,2022-6-30T15:03:01Z
2022-06-30T13:04:19Z,42.805,6.029,13.3007,4.60043,2470.366,2022-6-30T15:06:04Z
2022-06-30T13:07:22Z,42.805,6.029,13.3004,4.60043,2470.366,2022-6-30T15:09:07Z
2022-06-30T13:10:26Z,42.805,6.029,13.3011,4.60046,2470.366,2022-6-30T15:12:10Z
2022-06-30T13:13:29Z,42.805,6.029,13.3009,4.60054,2470.39,2022-6-30T15:15:14Z
2022-06-30T13:16:32Z,42.805,6.029,13.3010,4.60068,2470.404,2022-6-30T15:18:17Z
2022-06-30T13:19:35Z,42.805,6.029,13.3008,4.60057,2470.413,2022-6-30T15:21:20Z
2022-06-30T13:22:38Z,42.805,6.029,13.3011,4.60105,2470.39,2022-6-30T15:24:23Z
2022-06-30T13:25:41Z,42.805,6.029,13.3012,4.60064,2470.366,2022-6-30T15:27:26Z
2022-06-30T13:28:44Z,42.805,6.029,13.3009,4.60065,2470.413,2022-6-30T15:30:29Z
2022-06-30T13:31:47Z,42.805,6.029,13.3006,4.60043,2470.39,2022-6-30T15:33:32Z
2022-06-30T13:34:51Z,42.805,6.029,13.3010,4.60052,2470.413,2022-6-30T15:36:35Z
2022-06-30T13:37:54Z,42.805,6.029,13.3010,4.60046,2470.38,2022-6-30T15:39:39Z
2022-06-30T13:40:57Z,42.805,6.029,13.3004,4.60046,2470.366,2022-6-30T15:42:42Z
2022-06-30T13:44:00Z,42.805,6.029,13.3007,4.60045,2470.343,2022-6-30T15:45:45Z
2022-06-30T13:47:03Z,42.805,6.029,13.3004,4.60042,2470.38,2022-6-30T15:48:48Z
2022-06-30T13:50:06Z,42.805,6.029,13.3007,4.60045,2470.366,2022-6-30T15:51:51Z
2022-06-30T13:53:09Z,42.805,6.029,13.3005,4.60044,2470.366,2022-6-30T15:54:54Z
2022-06-30T13:56:12Z,42.805,6.029,13.3010,4.60043,2470.39,2022-6-30T15:57:57Z
2022-06-30T13:59:16Z,42.805,6.029,13.3009,4.60046,2470.427,2022-6-30T16:01:00Z
2022-06-30T14:02:19Z,42.805,6.029,13.3010,4.60098,2470.366,2022-6-30T16:04:04Z
2022-06-30T14:05:22Z,42.805,6.029,13.3009,4.60060,2470.366,2022-6-30T16:07:07Z
2022-06-30T14:08:25Z,42.805,6.029,13.3010,4.60049,2470.404,2022-6-30T16:10:10Z
2022-06-30T14:11:28Z,42.805,6.029,13.3011,4.60044,2470.39,2022-6-30T16:13:13Z
2022-06-30T14:14:31Z,42.805,6.029,13.3009,4.60050,2470.404,2022-6-30T16:16:16Z
2022-06-30T14:17:34Z,42.805,6.029,13.3007,4.60051,2470.413,2022-6-30T16:19:19Z
2022-06-30T14:20:37Z,42.805,6.029,13.3009,4.60050,2470.366,2022-6-30T16:22:22Z
2022-06-30T14:23:41Z,42.805,6.029,13.3010,4.60051,2470.366,2022-6-30T16:25:25Z
2022-06-30T14:26:44Z,42.805,6.029,13.3006,4.60061,2470.39,2022-6-30T16:28:29Z
2022-06-30T14:29:47Z,42.805,6.029,13.3007,4.60049,2470.39,2022-6-30T16:31:32Z
2022-06-30T14:32:50Z,42.805,6.029,13.3006,4.60049,2470.39,2022-6-30T16:34:35Z
2022-06-30T14:35:53Z,42.805,6.029,13.3009,4.60064,2470.404,2022-6-30T16:37:38Z
2022-06-30T14:38:56Z,42.805,6.029,13.3009,4.60064,2470.366,2022-6-30T16:40:41Z
2022-06-30T14:41:59Z,42.805,6.029,13.3009,4.60079,2470.366,2022-6-30T16:43:44Z
2022-06-30T14:45:03Z,42.805,6.029,13.3013,4.60104,2470.357,2022-6-30T16:46:47Z
2022-06-30T14:48:06Z,42.805,6.029,13.3011,4.60074,2470.404,2022-6-30T16:49:50Z
2022-06-30T14:51:09Z,42.805,6.029,13.3008,4.60057,2470.404,2022-6-30T16:52:54Z
2022-06-30T14:54:12Z,42.805,6.029,13.3013,4.60044,2470.38,2022-6-30T16:55:57Z
2022-06-30T14:57:15Z,42.805,6.029,13.3009,4.60057,2470.39,2022-6-30T16:59:00Z
2022-06-30T15:00:18Z,42.805,6.029,13.3014,4.60049,2470.39,2022-6-30T17:02:03Z
2022-06-30T15:03:21Z,42.805,6.029,13.3016,4.60057,2470.357,2022-6-30T17:05:06Z
2022-06-30T15:06:24Z,42.805,6.029,13.3011,4.60079,2470.39,2022-6-30T17:08:09Z
2022-06-30T15:09:28Z,42.805,6.029,13.3008,4.60069,2470.366,2022-6-30T17:11:12Z
2022-06-30T15:12:31Z,42.805,6.029,13.3011,4.60067,2470.427,2022-6-30T17:14:16Z
2022-06-30T15:15:34Z,42.805,6.029,13.3011,4.60062,2470.413,2022-6-30T17:17:19Z
2022-06-30T15:18:37Z,42.805,6.029,13.3014,4.60059,2470.404,2022-6-30T17:20:22Z
2022-06-30T15:21:40Z,42.805,6.029,13.3011,4.60065,2470.39,2022-6-30T17:23:25Z
2022-06-30T15:24:43Z,42.805,6.029,13.3017,4.60067,2470.39,2022-6-30T17:26:28Z
2022-06-30T15:27:46Z,42.805,6.029,13.3022,4.60050,2470.39,2022-6-30T17:29:31Z
2022-06-30T15:30:49Z,42.805,6.029,13.3034,4.60049,2470.413,2022-6-30T17:32:34Z
2022-06-30T15:33:53Z,42.805,6.029,13.3024,4.60059,2470.366,2022-6-30T17:35:37Z
2022-06-30T15:36:56Z,42.805,6.029,13.3024,4.60046,2470.427,2022-6-30T17:38:41Z
2022-06-30T15:39:59Z,42.805,6.029,13.3034,4.60067,2470.427,2022-6-30T17:41:44Z
2022-06-30T15:43:02Z,42.805,6.029,13.3036,4.60057,2470.404,2022-6-30T17:44:47Z
2022-06-30T15:46:05Z,42.805,6.029,13.3034,4.60079,2470.413,2022-6-30T17:47:50Z
2022-06-30T15:49:08Z,42.805,6.029,13.3044,4.60092,2470.427,2022-6-30T17:50:53Z
2022-06-30T15:52:11Z,42.805,6.029,13.3047,4.60081,2470.437,2022-6-30T17:53:56Z
2022-06-30T15:55:14Z,42.805,6.029,13.3065,4.60117,2470.474,2022-6-30T17:56:59Z
2022-06-30T15:58:18Z,42.805,6.029,13.3074,4.60102,2470.39,2022-6-30T18:00:02Z
2022-06-30T16:01:21Z,42.805,6.029,13.3076,4.60110,2470.413,2022-6-30T18:03:06Z
2022-06-30T16:04:24Z,42.805,6.029,13.3075,4.60087,2470.413,2022-6-30T18:06:09Z
2022-06-30T16:07:27Z,42.805,6.029,13.3080,4.60116,2470.413,2022-6-30T18:09:12Z
2022-06-30T16:10:30Z,42.805,6.029,13.3069,4.60127,2470.45,2022-6-30T18:12:15Z
2022-06-30T16:13:33Z,42.805,6.029,13.3080,4.60133,2470.413,2022-6-30T18:15:18Z
2022-06-30T16:16:36Z,42.805,6.029,13.3082,4.60137,2470.427,2022-6-30T18:18:21Z
2022-06-30T16:19:39Z,42.805,6.029,13.3089,4.60122,2470.413,2022-6-30T18:21:24Z
2022-06-30T16:22:43Z,42.805,6.029,13.3093,4.60108,2470.413,2022-6-30T18:24:27Z
2022-06-30T16:25:46Z,42.805,6.029,13.3088,4.60104,2470.404,2022-6-30T18:27:31Z
2022-06-30T16:28:49Z,42.805,6.029,13.3043,4.60142,2470.404,2022-6-30T18:30:34Z
2022-06-30T16:31:52Z,42.805,6.029,13.3073,4.60125,2470.427,2022-6-30T18:33:37Z
2022-06-30T16:34:55Z,42.805,6.029,13.3016,4.60112,2470.45,2022-6-30T18:36:40Z
2022-06-30T16:37:58Z,42.805,6.029,13.3017,4.60087,2470.404,2022-6-30T18:39:43Z
2022-06-30T16:41:01Z,42.805,6.029,13.3011,4.60075,2470.45,2022-6-30T18:42:46Z
2022-06-30T16:44:04Z,42.805,6.029,13.3013,4.60067,2470.427,2022-6-30T18:45:49Z
2022-06-30T16:47:08Z,42.805,6.029,13.3018,4.60089,2470.427,2022-6-30T18:48:52Z
2022-06-30T16:50:11Z,42.805,6.029,13.3011,4.60076,2470.45,2022-6-30T18:51:56Z
2022-06-30T16:53:14Z,42.805,6.029,13.3013,4.60071,2470.46,2022-6-30T18:54:59Z
2022-06-30T16:56:17Z,42.805,6.029,13.3013,4.60057,2470.376,2022-6-30T18:58:02Z
2022-06-30T16:59:20Z,42.805,6.029,13.3011,4.60054,2470.427,2022-6-30T19:01:05Z
2022-06-30T17:02:23Z,42.805,6.029,13.3009,4.60055,2470.45,2022-6-30T19:04:08Z
2022-06-30T17:05:26Z,42.805,6.029,13.3011,4.60056,2470.437,2022-6-30T19:07:11Z
2022-06-30T17:08:29Z,42.805,6.029,13.3009,4.60073,2470.427,2022-6-30T19:10:14Z
2022-06-30T17:11:33Z,42.805,6.029,13.3009,4.60053,2470.413,2022-6-30T19:13:17Z
2022-06-30T17:14:36Z,42.805,6.029,13.3008,4.60047,2470.437,2022-6-30T19:16:21Z
2022-06-30T17:17:39Z,42.805,6.029,13.3009,4.60059,2470.45,2022-6-30T19:19:24Z
2022-06-30T17:20:42Z,42.805,6.029,13.3013,4.60045,2470.45,2022-6-30T19:22:27Z
2022-06-30T17:23:45Z,42.805,6.029,13.3015,4.60046,2470.437,2022-6-30T19:25:30Z
2022-06-30T17:26:48Z,42.805,6.029,13.3016,4.60044,2470.437,2022-6-30T19:28:33Z
2022-06-30T17:29:51Z,42.805,6.029,13.3015,4.60047,2470.427,2022-6-30T19:31:36Z
2022-06-30T17:32:54Z,42.805,6.029,13.3019,4.60048,2470.474,2022-6-30T19:34:39Z
2022-06-30T17:35:58Z,42.805,6.029,13.3020,4.60049,2470.52,2022-6-30T19:37:43Z
2022-06-30T17:39:01Z,42.805,6.029,13.3011,4.60051,2470.497,2022-6-30T19:40:46Z
2022-06-30T17:42:04Z,42.805,6.029,13.3013,4.60050,2470.497,2022-6-30T19:43:49Z
2022-06-30T17:45:07Z,42.805,6.029,13.3011,4.60049,2470.497,2022-6-30T19:46:52Z
2022-06-30T17:48:10Z,42.805,6.029,13.3017,4.60050,2470.52,2022-6-30T19:49:55Z
2022-06-30T17:51:13Z,42.805,6.029,13.3016,4.60047,2470.497,2022-6-30T19:52:58Z
2022-06-30T17:54:16Z,42.805,6.029,13.3014,4.60058,2470.483,2022-6-30T19:56:01Z
2022-06-30T17:57:19Z,42.805,6.029,13.3019,4.60049,2470.483,2022-6-30T19:59:04Z
2022-06-30T18:00:23Z,42.805,6.029,13.3020,4.60057,2470.497,2022-6-30T20:02:07Z
2022-06-30T18:03:26Z,42.805,6.029,13.3024,4.60051,2470.52,2022-6-30T20:05:11Z
2022-06-30T18:06:29Z,42.805,6.029,13.3026,4.60044,2470.52,2022-6-30T20:08:14Z
2022-06-30T18:09:32Z,42.805,6.029,13.3019,4.60044,2470.483,2022-6-30T20:11:17Z
2022-06-30T18:12:35Z,42.805,6.029,13.3021,4.60045,2470.507,2022-6-30T20:14:20Z
2022-06-30T18:15:38Z,42.805,6.029,13.3016,4.60044,2470.46,2022-6-30T20:17:23Z
2022-06-30T18:18:41Z,42.805,6.029,13.3014,4.60044,2470.507,2022-6-30T20:20:26Z
2022-06-30T18:21:44Z,42.805,6.029,13.3018,4.60046,2470.507,2022-6-30T20:23:29Z
2022-06-30T18:24:48Z,42.805,6.029,13.3009,4.60045,2470.507,2022-6-30T20:26:33Z
2022-06-30T18:27:51Z,42.805,6.029,13.3009,4.60046,2470.52,2022-6-30T20:29:36Z
2022-06-30T18:30:54Z,42.805,6.029,13.3015,4.60052,2470.53,2022-6-30T20:32:39Z
2022-06-30T18:33:57Z,42.805,6.029,13.3011,4.60045,2470.507,2022-6-30T20:35:42Z
2022-06-30T18:37:00Z,42.805,6.029,13.3010,4.60049,2470.497,2022-6-30T20:38:45Z
2022-06-30T18:40:03Z,42.805,6.029,13.3009,4.60048,2470.507,2022-6-30T20:41:48Z
2022-06-30T18:43:06Z,42.805,6.029,13.3006,4.60052,2470.483,2022-6-30T20:44:51Z
2022-06-30T18:46:10Z,42.805,6.029,13.3014,4.60045,2470.507,2022-6-30T20:47:54Z
2022-06-30T18:49:13Z,42.805,6.029,13.3012,4.60044,2470.507,2022-6-30T20:50:58Z
2022-06-30T18:52:16Z,42.805,6.029,13.3007,4.60045,2470.483,2022-6-30T20:54:01Z
2022-06-30T18:55:19Z,42.805,6.029,13.3011,4.60050,2470.52,2022-6-30T20:57:04Z
2022-06-30T18:58:22Z,42.805,6.029,13.3011,4.60048,2470.507,2022-6-30T21:00:07Z
2022-06-30T19:01:25Z,42.805,6.029,13.3011,4.60046,2470.558,2022-6-30T21:03:10Z
2022-06-30T19:04:28Z,42.805,6.029,13.3010,4.60049,2470.567,2022-6-30T21:06:13Z
2022-06-30T19:07:31Z,42.805,6.029,13.3008,4.60049,2470.507,2022-6-30T21:09:16Z
2022-06-30T19:10:34Z,42.805,6.029,13.3011,4.60045,2470.567,2022-6-30T21:12:19Z
2022-06-30T19:13:38Z,42.805,6.029,13.3006,4.60050,2470.53,2022-6-30T21:15:23Z
2022-06-30T19:16:41Z,42.805,6.029,13.3011,4.60043,2470.507,2022-6-30T21:18:26Z
2022-06-30T19:19:44Z,42.805,6.029,13.3009,4.60047,2470.53,2022-6-30T21:21:29Z
2022-06-30T19:22:47Z,42.805,6.029,13.3011,4.60057,2470.544,2022-6-30T21:24:32Z
2022-06-30T19:25:50Z,42.805,6.029,13.3006,4.60044,2470.544,2022-6-30T21:27:35Z
2022-06-30T19:28:53Z,42.805,6.029,13.3008,4.60043,2470.553,2022-6-30T21:30:38Z
2022-06-30T19:31:56Z,42.805,6.029,13.3009,4.60045,2470.53,2022-6-30T21:33:41Z
2022-06-30T19:35:00Z,42.805,6.029,13.3006,4.60043,2470.567,2022-6-30T21:36:44Z
2022-06-30T19:38:03Z,42.805,6.029,13.3009,4.60045,2470.53,2022-6-30T21:39:48Z
2022-06-30T19:41:06Z,42.805,6.029,13.3009,4.60044,2470.567,2022-6-30T21:42:51Z
2022-06-30T19:44:09Z,42.805,6.029,13.3006,4.60046,2470.544,2022-6-30T21:45:54Z
2022-06-30T19:47:12Z,42.805,6.029,13.3007,4.60051,2470.591,2022-6-30T21:48:57Z
2022-06-30T19:50:15Z,42.805,6.029,13.3002,4.60044,2470.553,2022-6-30T21:52:00Z
2022-06-30T19:53:18Z,42.805,6.029,13.3006,4.60043,2470.553,2022-6-30T21:55:03Z
2022-06-30T19:56:21Z,42.805,6.029,13.3006,4.60044,2470.553,2022-6-30T21:58:06Z
2022-06-30T19:59:25Z,42.805,6.029,13.3004,4.60043,2470.553,2022-6-30T22:01:09Z
2022-06-30T20:02:28Z,42.805,6.029,13.3004,4.60044,2470.567,2022-6-30T22:04:13Z
2022-06-30T20:05:31Z,42.805,6.029,13.3008,4.60046,2470.591,2022-6-30T22:07:16Z
2022-06-30T20:08:34Z,42.805,6.029,13.3008,4.60044,2470.577,2022-6-30T22:10:19Z
2022-06-30T20:11:37Z,42.805,6.029,13.3006,4.60044,2470.577,2022-6-30T22:13:22Z
2022-06-30T20:14:40Z,42.805,6.029,13.3009,4.60048,2470.591,2022-6-30T22:16:25Z
2022-06-30T20:17:43Z,42.805,6.029,13.3009,4.60045,2470.614,2022-6-30T22:19:28Z
2022-06-30T20:20:46Z,42.805,6.029,13.3006,4.60044,2470.6,2022-6-30T22:22:31Z
2022-06-30T20:23:50Z,42.805,6.029,13.3010,4.60045,2470.624,2022-6-30T22:25:34Z
2022-06-30T20:26:53Z,42.805,6.029,13.3009,4.60047,2470.6,2022-6-30T22:28:38Z
2022-06-30T20:29:56Z,42.805,6.029,13.3010,4.60050,2470.614,2022-6-30T22:31:41Z
2022-06-30T20:32:59Z,42.805,6.029,13.3009,4.60051,2470.591,2022-6-30T22:34:44Z
2022-06-30T20:36:02Z,42.805,6.029,13.3010,4.60043,2470.577,2022-6-30T22:37:47Z
2022-06-30T20:39:05Z,42.805,6.029,13.3009,4.60044,2470.614,2022-6-30T22:40:50Z
2022-06-30T20:42:08Z,42.805,6.029,13.3009,4.60045,2470.637,2022-6-30T22:43:53Z
2022-06-30T20:45:11Z,42.805,6.029,13.3009,4.60046,2470.6,2022-6-30T22:46:56Z
2022-06-30T20:48:15Z,42.805,6.029,13.3007,4.60047,2470.577,2022-6-30T22:49:59Z
2022-06-30T20:51:18Z,42.805,6.029,13.3013,4.60045,2470.6,2022-6-30T22:53:03Z
2022-06-30T20:54:21Z,42.805,6.029,13.3011,4.60045,2470.567,2022-6-30T22:56:06Z
2022-06-30T20:57:24Z,42.805,6.029,13.3010,4.60049,2470.577,2022-6-30T22:59:09Z
2022-06-30T21:00:27Z,42.805,6.029,13.3011,4.60049,2470.6,2022-6-30T23:02:12Z
2022-06-30T21:03:30Z,42.805,6.029,13.3011,4.60051,2470.6,2022-6-30T23:05:15Z
2022-06-30T21:06:33Z,42.805,6.029,13.3005,4.60048,2470.6,2022-6-30T23:08:18Z
2022-06-30T21:09:36Z,42.805,6.029,13.3007,4.60052,2470.614,2022-6-30T23:11:21Z
2022-06-30T21:12:40Z,42.805,6.029,13.3008,4.60046,2470.6,2022-6-30T23:14:25Z
2022-06-30T21:15:43Z,42.805,6.029,13.3004,4.60052,2470.577,2022-6-30T23:17:28Z
2022-06-30T21:18:46Z,42.805,6.029,13.3008,4.60045,2470.6,2022-6-30T23:20:31Z
2022-06-30T21:21:49Z,42.805,6.029,13.3006,4.60046,2470.591,2022-6-30T23:23:34Z
2022-06-30T21:24:52Z,42.805,6.029,13.3005,4.60044,2470.6,2022-6-30T23:26:37Z
2022-06-30T21:27:55Z,42.805,6.029,13.3010,4.60046,2470.6,2022-6-30T23:29:40Z
2022-06-30T21:30:58Z,42.805,6.029,13.3006,4.60049,2470.614,2022-6-30T23:32:43Z
2022-06-30T21:34:01Z,42.805,6.029,13.3011,4.60046,2470.637,2022-6-30T23:35:46Z
2022-06-30T21:37:05Z,42.805,6.029,13.3007,4.60056,2470.6,2022-6-30T23:38:50Z
2022-06-30T21:40:08Z,42.805,6.029,13.3011,4.60052,2470.577,2022-6-30T23:41:53Z
2022-06-30T21:43:11Z,42.805,6.029,13.3006,4.60044,2470.6,2022-6-30T23:44:56Z
2022-06-30T21:46:14Z,42.805,6.029,13.3008,4.60051,2470.614,2022-6-30T23:47:59Z
2022-06-30T21:49:17Z,42.805,6.029,13.3006,4.60044,2470.614,2022-6-30T23:51:02Z
2022-06-30T21:52:20Z,42.805,6.029,13.3009,4.60049,2470.577,2022-6-30T23:54:05Z
2022-06-30T21:55:23Z,42.805,6.029,13.3009,4.60054,2470.6,2022-6-30T23:57:08Z
2022-06-30T21:58:27Z,42.805,6.029,13.3010,4.60044,2470.614,2022-7-01T00:00:11Z
2022-06-30T22:01:30Z,42.805,6.029,13.3011,4.60045,2470.577,2022-7-01T00:03:15Z
2022-06-30T22:04:33Z,42.805,6.029,13.3013,4.60052,2470.591,2022-7-01T00:06:18Z
2022-06-30T22:07:36Z,42.805,6.029,13.3008,4.60046,2470.6,2022-7-01T00:09:21Z
2022-06-30T22:10:39Z,42.805,6.029,13.3010,4.60047,2470.577,2022-7-01T00:12:24Z
2022-06-30T22:13:42Z,42.805,6.029,13.3010,4.60044,2470.577,2022-7-01T00:15:27Z
2022-06-30T22:16:45Z,42.805,6.029,13.3006,4.60048,2470.6,2022-7-01T00:18:30Z
2022-06-30T22:19:48Z,42.805,6.029,13.3009,4.60045,2470.577,2022-7-01T00:21:33Z
2022-06-30T22:22:51Z,42.805,6.029,13.3012,4.60044,2470.591,2022-7-01T00:24:36Z
2022-06-30T22:25:55Z,42.805,6.029,13.3005,4.60044,2470.577,2022-7-01T00:27:39Z
2022-06-30T22:28:58Z,42.805,6.029,13.3015,4.60046,2470.591,2022-7-01T00:30:43Z
2022-06-30T22:32:01Z,42.805,6.029,13.3021,4.60076,2470.577,2022-7-01T00:33:46Z
2022-06-30T22:35:04Z,42.805,6.029,13.3027,4.60064,2470.6,2022-7-01T00:36:49Z
2022-06-30T22:38:07Z,42.805,6.029,13.3054,4.60066,2470.567,2022-7-01T00:39:52Z
2022-06-30T22:41:10Z,42.805,6.029,13.3041,4.60069,2470.614,2022-7-01T00:42:55Z
2022-06-30T22:44:13Z,42.805,6.029,13.3042,4.60069,2470.591,2022-7-01T00:45:58Z
2022-06-30T22:47:16Z,42.805,6.029,13.3026,4.60090,2470.577,2022-7-01T00:49:01Z
2022-06-30T22:50:19Z,42.805,6.029,13.3048,4.60075,2470.591,2022-7-01T00:52:04Z
2022-06-30T22:53:23Z,42.805,6.029,13.3056,4.60106,2470.6,2022-7-01T00:55:08Z
2022-06-30T22:56:26Z,42.805,6.029,13.3051,4.60071,2470.577,2022-7-01T00:58:11Z
2022-06-30T22:59:29Z,42.805,6.029,13.3048,4.60093,2470.6,2022-7-01T01:01:14Z
2022-06-30T23:02:32Z,42.805,6.029,13.3034,4.60098,2470.591,2022-7-01T01:04:17Z
2022-06-30T23:05:35Z,42.805,6.029,13.3026,4.60075,2470.553,2022-7-01T01:07:20Z
2022-06-30T23:08:38Z,42.805,6.029,13.3027,4.60050,2470.553,2022-7-01T01:10:23Z
2022-06-30T23:11:41Z,42.805,6.029,13.3043,4.60087,2470.614,2022-7-01T01:13:26Z
2022-06-30T23:14:44Z,42.805,6.029,13.3040,4.60076,2470.567,2022-7-01T01:16:29Z
2022-06-30T23:17:48Z,42.805,6.029,13.3041,4.60074,2470.553,2022-7-01T01:19:32Z
2022-06-30T23:20:51Z,42.805,6.029,13.3037,4.60061,2470.577,2022-7-01T01:22:36Z
2022-06-30T23:23:54Z,42.805,6.029,13.3026,4.60090,2470.577,2022-7-01T01:25:39Z
2022-06-30T23:26:57Z,42.805,6.029,13.3018,4.60075,2470.553,2022-7-01T01:28:42Z
2022-06-30T23:30:00Z,42.805,6.029,13.3049,4.60080,2470.577,2022-7-01T01:31:45Z
2022-06-30T23:33:03Z,42.805,6.029,13.3046,4.60060,2470.577,2022-7-01T01:34:48Z
2022-06-30T23:36:06Z,42.805,6.029,13.3048,4.60072,2470.544,2022-7-01T01:37:51Z
2022-06-30T23:39:09Z,42.805,6.029,13.3041,4.60100,2470.577,2022-7-01T01:40:54Z
2022-06-30T23:42:13Z,42.805,6.029,13.3031,4.60101,2470.553,2022-7-01T01:43:57Z
2022-06-30T23:45:16Z,42.805,6.029,13.3037,4.60062,2470.53,2022-7-01T01:47:01Z
2022-06-30T23:48:19Z,42.805,6.029,13.3042,4.60079,2470.53,2022-7-01T01:50:04Z
2022-06-30T23:51:22Z,42.805,6.029,13.3056,4.60079,2470.53,2022-7-01T01:53:07Z
2022-06-30T23:54:25Z,42.805,6.029,13.3010,4.60049,2470.544,2022-7-01T01:56:10Z
2022-06-30T23:57:28Z,42.805,6.029,13.3035,4.60067,2470.52,2022-7-01T01:59:13Z
